Total_Precipitation_Accumulation
1.96 1.93 1.81 1.76 1.53 1.62 1.93 2.22 2.13 2.30 2.48 2.35 2.06 1.91 1.82 1.65 1.63 1.56 1.68 1.88 1.79 1.88 2.16 2.24 2.19 2.04 1.96 1.79 1.62 1.53 1.47 1.34 1.12 0.85 0.68 0.64 0.59 0.48 0.44 0.43 0.40 0.37 0.32
2.21 2.17 1.97 1.89 1.61 1.58 1.82 2.10 2.13 2.33 2.38 2.39 1.99 1.82 1.74 1.78 1.73 1.60 1.67 1.87 1.86 1.70 1.86 2.17 2.38 2.42 2.29 2.15 1.91 1.69 1.57 1.48 1.25 0.93 0.73 0.68 0.64 0.58 0.57 0.59 0.52 0.39 0.29
2.45 2.39 2.21 1.93 1.81 1.88 1.98 1.99 2.07 2.45 2.31 2.20 2.01 2.01 1.97 1.92 1.77 1.69 1.66 1.81 1.65 1.59 1.60 1.76 2.08 2.35 2.60 2.58 2.33 2.12 1.83 1.58 1.29 1.00 0.79 0.66 0.60 0.57 0.59 0.59 0.60 0.48 0.31
2.43 2.53 2.20 1.84 1.98 2.14 2.17 2.14 2.17 2.39 2.41 2.48 2.39 2.23 2.06 1.92 1.52 1.44 1.46 1.51 1.62 1.39 1.51 1.74 1.88 2.00 2.44 2.79 2.91 2.88 2.40 1.88 1.45 1.11 0.90 0.73 0.66 0.61 0.54 0.50 0.49 0.49 0.37
1.86 1.90 1.60 1.50 1.67 1.76 1.65 1.58 1.87 2.07 2.16 2.27 2.16 1.99 1.72 1.57 1.39 1.30 1.33 1.17 1.25 1.30 1.36 1.59 1.79 1.83 2.25 2.87 3.43 3.65 3.29 2.62 1.99 1.49 1.26 1.10 0.94 0.75 0.60 0.53 0.50 0.48 0.40
1.44 1.49 1.24 1.18 1.40 1.52 1.48 1.59 1.72 1.72 1.67 1.73 1.55 1.38 1.29 1.13 1.12 1.10 0.98 0.97 0.97 0.97 1.14 1.41 1.62 1.44 1.92 2.64 3.22 3.53 3.59 3.21 2.56 2.09 1.86 1.62 1.43 1.12 0.76 0.60 0.55 0.50 0.42
1.44 1.51 1.25 1.33 1.40 1.41 1.40 1.44 1.51 1.44 1.24 1.40 1.61 1.41 1.14 1.00 0.97 0.87 0.83 0.87 0.80 0.86 1.08 1.28 1.46 1.55 1.45 1.60 2.07 2.57 3.19 3.53 3.15 2.62 2.36 2.13 1.94 1.56 1.10 0.86 0.68 0.56 0.48
1.31 1.31 1.27 1.07 1.10 1.20 1.11 1.14 1.35 1.36 1.15 1.25 1.48 1.53 1.27 1.23 1.05 0.65 0.70 0.75 0.76 0.88 1.03 1.10 1.34 1.57 1.53 1.72 1.38 1.62 2.42 3.07 3.40 3.28 2.89 2.41 2.06 1.70 1.37 1.17 0.93 0.72 0.62
1.08 1.09 1.06 1.02 1.08 1.06 1.10 1.12 1.16 1.26 1.18 1.07 1.16 1.45 1.31 1.14 0.97 0.76 0.68 0.67 0.80 0.99 1.06 1.17 1.21 1.31 1.43 1.69 1.68 1.50 1.82 2.04 2.84 3.47 3.33 2.67 1.97 1.54 1.39 1.41 1.31 1.04 0.87
1.03 0.96 0.95 0.91 0.97 0.99 1.14 0.99 1.02 1.11 1.13 0.96 0.97 1.05 1.05 1.07 1.06 0.92 0.79 0.75 0.79 0.94 1.08 1.12 1.24 1.35 1.38 1.50 1.70 1.56 1.37 1.43 1.94 2.66 3.04 2.92 2.36 1.76 1.48 1.59 1.89 1.81 1.39
1.02 0.94 0.94 0.97 0.96 0.93 0.95 0.98 1.07 1.04 1.00 0.94 0.92 0.98 1.06 1.06 1.00 0.98 0.97 0.87 0.79 0.71 0.83 1.03 1.20 1.32 1.32 1.44 1.73 1.64 1.49 1.38 1.29 1.50 2.00 2.39 2.42 2.13 1.83 1.90 2.39 2.72 2.54
1.06 1.06 1.01 1.04 0.97 0.92 0.93 0.93 0.97 0.96 1.01 1.05 0.99 0.98 1.12 1.16 1.06 1.03 0.97 0.87 0.81 0.69 0.73 0.94 1.22 1.39 1.39 1.38 1.24 1.19 1.25 1.22 1.12 1.08 1.23 1.49 1.81 1.99 2.03 2.19 2.57 3.03 3.29
1.00 1.10 1.09 1.05 1.03 1.02 0.97 0.96 0.94 0.91 0.99 1.11 1.04 0.95 0.96 0.99 1.05 1.07 1.03 0.91 0.90 0.83 0.96 0.98 1.03 1.19 1.23 1.31 1.28 1.12 0.93 0.91 0.84 0.84 0.97 1.12 1.34 1.61 1.80 1.93 2.23 2.60 2.89
1.00 1.07 1.06 0.98 0.94 0.94 0.92 1.03 0.94 0.91 1.01 1.10 1.07 1.20 1.12 0.98 1.11 1.15 1.13 1.17 1.12 1.11 1.23 1.15 1.04 1.06 1.12 1.19 1.16 1.04 0.83 0.84 0.78 0.73 0.71 0.71 0.79 0.93 1.08 1.22 1.40 1.65 1.88
1.05 1.07 0.98 0.97 0.95 0.91 0.92 1.01 0.96 1.00 1.07 1.05 1.11 1.29 1.30 1.18 1.14 1.16 1.24 1.38 1.52 1.41 1.29 1.19 1.08 1.02 1.05 1.11 1.10 0.97 0.88 0.91 0.82 0.71 0.65 0.64 0.66 0.70 0.74 0.75 0.79 0.87 0.94
1.07 1.12 1.11 1.01 1.00 0.99 1.03 1.12 1.09 1.07 1.19 1.25 1.38 1.48 1.46 1.38 1.36 1.29 1.32 1.40 1.50 1.56 1.39 1.10 1.05 1.02 0.98 0.86 0.93 0.85 0.79 0.86 0.75 0.69 0.68 0.66 0.64 0.67 0.68 0.68 0.64 0.66 0.70
0.99 1.01 1.04 1.05 1.05 1.10 1.27 1.49 1.45 1.39 1.42 1.47 1.54 1.64 1.67 1.72 1.70 1.53 1.47 1.43 1.45 1.55 1.41 1.13 1.07 1.05 0.95 0.83 0.82 0.78 0.74 0.73 0.70 0.74 0.68 0.63 0.60 0.58 0.61 0.63 0.63 0.63 0.64
0.90 0.82 0.87 0.94 0.94 1.04 1.24 1.52 1.64 1.64 1.63 1.56 1.65 1.85 1.86 1.81 1.70 1.57 1.58 1.51 1.48 1.58 1.51 1.33 1.29 1.22 1.13 1.00 0.92 0.87 0.76 0.74 0.77 0.89 0.81 0.70 0.64 0.61 0.58 0.57 0.57 0.60 0.64
0.94 0.92 0.94 0.96 1.04 1.09 1.12 1.30 1.48 1.56 1.60 1.59 1.71 1.77 1.77 1.83 1.75 1.66 1.58 1.53 1.51 1.63 1.70 1.58 1.59 1.54 1.39 1.25 1.17 1.05 0.93 0.91 0.80 0.81 0.82 0.75 0.71 0.66 0.64 0.63 0.63 0.62 0.59
1.01 1.03 1.07 1.11 1.16 1.17 1.17 1.26 1.41 1.51 1.56 1.61 1.70 1.77 1.79 1.79 1.84 1.92 1.80 1.75 1.80 1.86 1.90 1.85 1.80 1.89 1.79 1.57 1.40 1.25 1.10 1.01 0.92 0.76 0.78 0.80 0.75 0.66 0.60 0.55 0.53 0.53 0.57
1.08 1.14 1.24 1.26 1.24 1.18 1.13 1.33 1.46 1.47 1.58 1.66 1.68 1.65 1.71 1.89 1.97 1.98 1.82 1.82 1.92 1.91 1.87 1.89 1.86 1.95 1.95 1.78 1.51 1.27 1.17 1.13 1.06 0.91 0.84 0.73 0.71 0.67 0.64 0.64 0.63 0.60 0.56
1.21 1.31 1.36 1.38 1.32 1.15 1.32 1.46 1.48 1.50 1.58 1.63 1.64 1.57 1.50 1.55 1.65 1.72 1.67 1.61 1.65 1.71 1.77 1.78 1.80 1.85 1.88 1.78 1.60 1.42 1.29 1.18 1.14 1.10 1.12 1.06 0.93 0.90 0.78 0.69 0.73 0.71 0.67
1.34 1.36 1.36 1.37 1.36 1.41 1.45 1.33 1.29 1.21 1.27 1.34 1.34 1.32 1.16 1.09 1.30 1.37 1.51 1.50 1.40 1.37 1.40 1.52 1.64 1.66 1.79 1.83 1.78 1.58 1.50 1.41 1.25 1.22 1.26 1.27 1.18 1.05 0.87 0.83 0.91 0.80 0.76
1.57 1.56 1.48 1.48 1.55 1.55 1.51 1.32 1.24 1.12 1.13 1.15 1.14 1.11 1.10 1.09 1.13 1.22 1.29 1.30 1.26 1.21 1.20 1.22 1.33 1.51 1.68 1.83 1.84 1.74 1.69 1.57 1.38 1.27 1.26 1.29 1.21 1.12 0.98 0.93 0.98 0.89 0.82
1.85 1.85 1.80 1.83 1.83 1.88 1.82 1.55 1.43 1.26 1.21 1.16 1.18 1.21 1.21 1.11 1.16 1.12 1.11 1.14 1.15 1.19 1.19 1.19 1.22 1.39 1.58 1.70 1.83 1.79 1.72 1.60 1.43 1.29 1.22 1.19 1.16 1.19 1.13 1.00 0.91 0.86 0.73
2.16 2.15 2.17 2.17 2.09 2.05 2.01 1.66 1.46 1.27 1.29 1.27 1.30 1.25 1.19 1.06 1.01 0.96 0.96 1.04 1.02 1.03 1.11 1.14 1.15 1.25 1.39 1.52 1.68 1.65 1.55 1.55 1.41 1.27 1.14 1.13 1.11 1.14 1.18 1.03 0.87 0.75 0.67